Weather History for Ogden Hill AFB, UT

Change the Weather History Date:

Tuesday, February 4, 2014

  Actual Average Record
Temperature  
Mean Temperature 20 °F -  
Max Temperature 26 °F 34 °F 53 °F (1998)
Min Temperature 15 °F 21 °F 8 °F (2002)
Degree Days  
Heating Degree Days 44    
Moisture  
Dew Point 14 °F    
Average Humidity 72    
Maximum Humidity 93    
Minimum Humidity 47    
Precipitation  
Precipitation 0.01 in - - ()
Snow  
Snow 0.00 in - - ()
Snow Depth 8.00 in    
Sea Level Pressure  
Sea Level Pressure 29.97 in    
Wind  
Wind Speed 9 mph (NNW)    
Max Wind Speed 15 mph    
Max Gust Speed -    
Visibility 7 miles    
Events Snow    
Averages and records for this station are not official NWS values.
T = Trace of Precipitation, MM = Missing Value Source: NWS Daily Summary

Daily Weather History Graph

Daily Weather History Graph

Search for Another Location

Airport:

Trip Planner

Search our weather history database for the weather conditions in past years. The results will help you decide how hot, cold, wet, or windy it might be!

Date:

Astronomy

Feb. 04, 2014 Rise Set
Actual Time 7:35 AM MST 5:48 PM MST
Civil Twilight 7:06 AM MST 6:17 PM MST
Nautical Twilight 6:33 AM MST 6:50 PM MST
Astronomical Twilight 6:01 AM MST 7:22 PM MST
Moon 10:12 AM MST (2/4) 11:50 PM MST (2/4)
Length of Visible Light 11h 10m
Length of Day
10h 13m
Waxing Crescent, 29% of the Moon is Illuminated
Feb 4
Waxing Crescent
Feb 6
First Quarter
Feb 14
Full
Feb 22
Last Quarter
Mar 1
New

Hourly Weather History & Observations

Time (MST) Temp. Windchill Dew Point Humidity Pressure Visibility Wind Dir Wind Speed Gust Speed Precip Events Conditions
12:03 AM 24.8 °F 12.4 °F 23.0 °F 93% 29.81 in 0.8 mi NNW 15.0 mph - N/A Snow Light Snow
12:13 AM 24.8 °F 12.9 °F 23.0 °F 93% 29.81 in 1.0 mi NNW 13.8 mph - N/A Snow Light Snow
12:18 AM 24.8 °F 12.9 °F 21.2 °F 86% 29.82 in 1.5 mi NNW 13.8 mph - N/A Snow Light Snow
12:23 AM 23.0 °F 10.6 °F 21.2 °F 93% 29.82 in 2.0 mi NNW 13.8 mph - N/A Snow Light Snow
12:28 AM 23.0 °F 10.6 °F 21.2 °F 93% 29.82 in 2.5 mi NNW 13.8 mph - N/A Snow Light Snow
12:38 AM 23.0 °F 11.1 °F 21.2 °F 93% 29.82 in 5.0 mi NNW 12.7 mph - N/A Snow Light Snow
12:43 AM 23.0 °F 11.1 °F 21.2 °F 93% 29.82 in 8.0 mi North 12.7 mph - N/A Snow Light Snow
12:48 AM 23.0 °F 11.7 °F 21.2 °F 93% 29.82 in 7.0 mi North 11.5 mph - N/A Snow Light Snow
12:58 AM 23.2 °F 12.6 °F 21.0 °F 91% 29.87 in 7.0 mi North 10.4 mph - 0.01 in Snow Light Snow
1:08 AM 23.0 °F 13.9 °F 21.2 °F 93% 29.81 in 10.0 mi North 8.1 mph - N/A Snow Light Snow
1:10 AM 23.0 °F 13.9 °F 19.4 °F 86% 29.81 in 10.0 mi North 8.1 mph - N/A   Overcast
1:35 AM 24.8 °F 20.5 °F 14.0 °F 64% 29.81 in 10.0 mi NNW 3.5 mph - N/A   Overcast
1:58 AM 24.3 °F - 14.2 °F 65% 29.86 in 10.0 mi Calm Calm - 0.00 in   Mostly Cloudy
2:58 AM 21.6 °F 14.0 °F 10.8 °F 63% 29.90 in 10.0 mi West 5.8 mph - N/A   Mostly Cloudy
3:03 AM 21.2 °F 12.6 °F 10.4 °F 63% 29.84 in 10.0 mi West 6.9 mph - N/A   Scattered Clouds
3:18 AM 19.4 °F 12.8 °F 10.4 °F 68% 29.84 in 10.0 mi WNW 4.6 mph - N/A   Mostly Cloudy
3:28 AM 21.2 °F 16.4 °F 10.4 °F 63% 29.84 in 10.0 mi NNW 3.5 mph - N/A   Mostly Cloudy
3:58 AM 19.2 °F 14.1 °F 12.9 °F 76% 29.91 in 10.0 mi North 3.5 mph - N/A   Mostly Cloudy
4:58 AM 18.1 °F 12.9 °F 12.4 °F 78% 29.92 in 10.0 mi ENE 3.5 mph - N/A   Clear
5:58 AM 18.5 °F 13.3 °F 11.5 °F 74% 29.94 in 10.0 mi NNE 3.5 mph - N/A   Partly Cloudy
6:58 AM 17.4 °F 10.4 °F 10.6 °F 75% 29.94 in 10.0 mi East 4.6 mph - N/A   Clear
7:58 AM 15.4 °F 5.6 °F 7.3 °F 70% 29.98 in 10.0 mi ESE 6.9 mph - N/A   Clear
8:23 AM 15.8 °F 7.2 °F 6.8 °F 68% 29.90 in 10.0 mi ESE 5.8 mph - N/A   Mostly Cloudy
8:42 AM 17.6 °F 8.2 °F 8.6 °F 68% 29.91 in 10.0 mi ESE 6.9 mph - N/A   Overcast
8:58 AM 16.7 °F 5.3 °F 7.9 °F 68% 30.00 in 10.0 mi ESE 9.2 mph - N/A   Mostly Cloudy
9:17 AM 17.6 °F 8.2 °F 8.6 °F 68% 29.92 in 10.0 mi ESE 6.9 mph - N/A   Mostly Cloudy
9:33 AM 17.6 °F 6.4 °F 6.8 °F 63% 29.92 in 10.0 mi East 9.2 mph - N/A   Scattered Clouds
9:58 AM 21.2 °F 14.9 °F 8.6 °F 58% 30.01 in 10.0 mi East 4.6 mph - N/A   Mostly Cloudy
10:58 AM 23.7 °F - 9.7 °F 55% 30.03 in 10.0 mi SW 2.3 mph - N/A   Mostly Cloudy
11:58 AM 25.7 °F 18.0 °F 11.3 °F 55% 30.05 in 10.0 mi West 6.9 mph - N/A   Mostly Cloudy
12:49 PM 26.6 °F 20.0 °F 8.6 °F 47% 29.96 in 10.0 mi Variable 5.8 mph - N/A   Mostly Cloudy
12:58 PM 26.4 °F 20.9 °F 9.5 °F 49% 30.04 in 10.0 mi WNW 4.6 mph - N/A   Mostly Cloudy
1:41 PM 24.8 °F 16.1 °F 8.6 °F 50% 29.96 in 10.0 mi NNW 8.1 mph - N/A   Mostly Cloudy
1:58 PM 24.8 °F 16.9 °F 8.2 °F 49% 30.04 in 10.0 mi North 6.9 mph - N/A   Overcast
2:14 PM 24.8 °F 15.3 °F 8.6 °F 50% 29.96 in 5.0 mi NW 9.2 mph - N/A Snow Light Snow
2:28 PM 24.8 °F 14.0 °F 12.2 °F 59% 29.96 in 2.0 mi WNW 11.5 mph - N/A Snow Light Snow
2:31 PM 24.8 °F 14.6 °F 12.2 °F 59% 29.96 in 2.0 mi NW 10.4 mph - N/A Snow Light Snow
2:36 PM 24.8 °F 14.0 °F 14.0 °F 64% 29.97 in 1.5 mi NW 11.5 mph - N/A Snow Light Snow
2:41 PM 23.0 °F 13.1 °F 15.8 °F 74% 29.97 in 1.0 mi WNW 9.2 mph - N/A Snow Light Snow
2:51 PM 23.0 °F 14.7 °F 15.8 °F 74% 29.97 in 0.5 mi WNW 6.9 mph - N/A Snow Light Snow
2:58 PM 22.6 °F 14.3 °F 16.0 °F 76% 30.06 in 0.5 mi WNW 6.9 mph - 0.00 in Snow Light Snow
3:12 PM 23.0 °F 13.1 °F 17.6 °F 80% 29.98 in 0.8 mi NNW 9.2 mph - N/A Snow Light Snow
3:21 PM 23.0 °F 14.7 °F 15.8 °F 74% 29.98 in 0.5 mi NW 6.9 mph - N/A Snow Light Snow
3:33 PM 23.0 °F 15.8 °F 17.6 °F 80% 29.99 in 1.2 mi NNW 5.8 mph - N/A Snow Light Snow
3:41 PM 23.0 °F 14.7 °F 17.6 °F 80% 29.99 in 2.0 mi NNW 6.9 mph - N/A Snow Light Snow
3:58 PM 23.0 °F 15.8 °F 16.0 °F 74% 30.09 in 4.0 mi NNW 5.8 mph - 0.00 in Snow Light Snow
4:15 PM 23.0 °F 14.7 °F 15.8 °F 74% 30.00 in 10.0 mi NW 6.9 mph - N/A   Overcast
4:34 PM 23.0 °F 13.9 °F 15.8 °F 74% 30.00 in 10.0 mi NW 8.1 mph - N/A Snow Light Snow
4:45 PM 23.0 °F 15.8 °F 14.0 °F 68% 30.00 in 10.0 mi NNW 5.8 mph - N/A   Overcast
4:58 PM 22.8 °F 18.2 °F 14.4 °F 70% 30.10 in 10.0 mi North 3.5 mph - 0.00 in   Mostly Cloudy
5:58 PM 20.1 °F 15.2 °F 14.2 °F 78% 30.14 in 10.0 mi NW 3.5 mph - N/A   Mostly Cloudy
6:58 PM 19.4 °F 12.8 °F 12.7 °F 75% 30.18 in 10.0 mi WNW 4.6 mph - N/A   Mostly Cloudy
7:58 PM 19.6 °F 13.0 °F 12.7 °F 75% 30.18 in 10.0 mi NW 4.6 mph - N/A   Overcast
8:58 PM 19.4 °F - 9.9 °F 66% 30.18 in 10.0 mi North 2.3 mph - N/A   Overcast
9:58 PM 18.5 °F 9.3 °F 11.5 °F 74% 30.19 in 10.0 mi ESE 6.9 mph - N/A   Overcast
10:58 PM 18.9 °F 10.8 °F 10.0 °F 69% 30.19 in 10.0 mi East 5.8 mph - N/A   Overcast
11:15 PM 19.4 °F 11.5 °F 10.4 °F 68% 30.09 in 10.0 mi ESE 5.8 mph - N/A   Overcast
11:35 PM 19.4 °F 10.4 °F 10.4 °F 68% 30.09 in 10.0 mi ESE 6.9 mph - N/A   Overcast
11:58 PM 18.3 °F 9.1 °F 7.9 °F 64% 30.20 in 10.0 mi ESE 6.9 mph - N/A   Overcast